Location: Austin
(30.3000°N, 97.7500°W)
Time: 05:10:50
(UTC-06:00)

CZ-4C R/B - Pass Details

Date: 05 February 2026
Orbit: 482 x 1496 km, 63.4° (Epoch: 15 February)

Event Time Altitude Azimuth Distance (km) Brightness Sun altitude
Exits shadow 05:17:26 37° 322° (NW) 1,941 3.7 -26.6°
Maximum altitude 05:21:15 77° 244° (WSW) 1,422 3.1 -25.8°
Drops below altitude 10° 05:30:25 10° 159° (SSE) 3,626 5.7 -23.8°
Sets 05:33:29 0° 158° (SSE) 4,612 6.4 -23.1°
